Tracking 34305 objects as of 7-Jun-2026
HD Live streaming from Space Station
objects crossing your sky now

STARLINK-37679

Track STARLINK-37679 now!
10-day predictions
STARLINK-37679 is classified as:


NORAD ID: 69229
Int'l Code: 2026-115U
Perigee: 334.5 km
Apogee: 336.3 km
Inclination: 97.3 °
Period: 91.1 minutes
Semi major axis: 6706 km
RCS: Unknown
Launch date: May 26, 2026
Source: United States (US)
Launch site: AIR FORCE WESTERN TEST RANGE (AFWTR)
Your satellite tracking list
Your tracking list is empty




NASA's NSSDC Master Catalog

Two Line Element Set (TLE):
1 69229U 26115U   26158.50004630  .00150574  00000-0  77480-3 0  9994
2 69229  97.2845 175.4559 0001344 105.2235  50.4694 15.80774953  3135
Source of the keplerian elements: AFSPC